Regional Weather Roundup
Issued by NWS

Home | Current Version | Previous Version | Text Only | Print | Product List | Glossary Off
Versions: 1 2 3 4 5 6 7 8 9 10 11 12 13 14 15 16 17 18 19 20 21 22 23 24 25 26 27 28 29 30 31 32 33 34 35 36 37 38 39 40 41 42 43 44 45 46 47 48 49 50

000
ASUS43 KDTX 300710
RWRMI
MICHIGAN HOURLY REGIONAL WEATHER ROUNDUP
NATIONAL WEATHER SERVICE DETROIT/PONTIAC MI
300 AM EDT SUN AUG 30 2015

NOTE: "FAIR" INDICATES FEW OR NO CLOUDS BELOW 12,000 FEET WITH NO
SIGNIFICANT WEATHER AND/OR OBSTRUCTION TO VISIBILITY.

MIZ047>049-052>055-059>063-066>070-074>076-081>083-300800-
SOUTHEAST LOWER MICHIGAN

CITY           SKY/WX    TMP DP  RH WIND       PRES   REMARKS
ADRIAN         CLOUDY    67  65  93 E6        30.05F FOG
ALMA           CLOUDY    64  64  99 NE3       30.05S FOG
ANN ARBOR      MOCLDY    65  64  97 CALM      30.04F FOG
BAD AXE        CLOUDY    63  63  98 CALM      30.06F FOG
DETROIT CITY   CLOUDY    68  66  93 SE3       30.05F
DETROIT        CLOUDY    68  64  87 SE3       30.05F
FLINT          CLOUDY    68  64  87 CALM      30.05F FOG
GROSSE ILE     CLOUDY    70  64  83 E3        30.03F
HILLSDALE      MOCLDY    66  66 100 CALM      30.04F
HOWELL         CLOUDY    66  66  98 SE3       30.05S FOG

CITY           SKY/WX    TMP DP  RH WIND       PRES   REMARKS
JACKSON        CLOUDY    67  65  93 S5        30.04F
LAMBERTVILLE   CLOUDY    69  66  91 CALM      30.05F FOG
LANSING        CLOUDY    66  65  96 NE3       30.04F
LAPEER         NOT AVBL
MASON          CLOUDY    67  64  89 S3        30.04F FOG
MONROE         CLOUDY    66  65  97 CALM      30.04F FOG
MT. CLEMENS    MOCLDY    67  66  96 E3        30.03F
PONTIAC        CLOUDY    65  64  97 SE3       30.05F FOG
PORT HOPE        N/A     66  63  90 CALM      30.04F
PORT HURON     CLOUDY    64  64 100 CALM      30.05F FOG
TRI CITIES     CLOUDY    66  63  90 NE5       30.05F FOG
YPSILANTI      CLOUDY    69  64  84 CALM      30.05F HAZE
$$
MIZ043>046-050>051-056>058-064>065-071>073-077>080-300800-
SOUTHWEST LOWER MICHIGAN

CITY           SKY/WX    TMP DP  RH WIND       PRES   REMARKS
BATTLE CREEK   CLOUDY    68  64  87 S7        30.03F
BENTON HARBOR  CLOUDY    69  67  93 S3        30.01S FOG
BIG RAPIDS     CLOUDY    63  62  97 CALM      30.04F FOG
COLDWATER      CLOUDY    67  66  98 CALM      30.03F
HOLLAND        CLOUDY    68  66  93 E3        30.02F FOG
GRAND RAPIDS   CLOUDY    65  65 100 E5        30.03F FOG
KALAMAZOO      CLOUDY    67  64  90 S6        30.02F
MARSHALL       CLOUDY    67  64  92 CALM      30.03F
MUSKEGON       CLOUDY    66  62  87 N3        30.02F FOG
$$
MIZ016>042-300800-
NORTHERN LOWER MICHIGAN

CITY           SKY/WX    TMP DP  RH WIND       PRES   REMARKS
ALPENA         PTCLDY    54  52  93 CALM      30.05F
BEAVER ISLAND  CLOUDY    56  55  97 CALM      30.04S FOG
BELLAIRE       FOG       59  58  96 CALM      30.05S VSB 3/4
CADILLAC       CLOUDY    58  57  97 CALM      30.05F
CHARLEVOIX     CLEAR     58  58  99 CALM      30.07S
FRANKFORT      SUNNY     55  55  97 CALM      30.05S FOG
GAYLORD        CLEAR     56  55  97 CALM      30.06S FOG
GRAYLING       FOG       52  51  94 CALM      30.07F VSB 1/2
HARBOR SPRINGS CLEAR     56  56  97 CALM      30.04F
HOUGHTON LAKE  FOG       52  52 100 CALM      30.06F VSB 1/4
MANISTEE         N/A     59  55  88 CALM      30.05S VSB 1/4
OSCODA         FOG       54  54  99 CALM      30.03F VSB 1/2
PELLSTON       CLEAR     52  51  97 CALM      30.05F FOG
TRAVERSE CITY  PTCLDY    60  57  89 CALM      30.03F FOG
$$
MIZ007>008-015-300800-
EASTERN UPPER MICHIGAN

CITY           SKY/WX    TMP DP  RH WIND       PRES   REMARKS
KINROSS        MOCLDY    59  59 100 S3        30.04F VSB 3/4
MACKINAC ISLAN CLEAR     60  59  96 SW7       30.04S
NEWBERRY       PTCLDY    60  60 100 SW8       30.02F FOG
S. S. MARIE    FOG       60  59  96 CALM      30.03F VSB 1/4
$$
MIZ004>006-011>014-085-300800-
CENTRAL UPPER MICHIGAN

CITY           SKY/WX    TMP DP  RH WIND       PRES   REMARKS
MANISTIQUE     MOCLDY    61  60  97 SW3       30.03S FOG
ESCANABA       CLEAR     57  55  94 W3        30.02F
MENOMINEE      PTCLDY    59  57  94 CALM      30.03F
SAWYER-GWINN   CLEAR     59  58  95 S5        30.02S FOG
$$
MIZ001>003-009>011-084-300800-
WESTERN UPPER MICHIGAN

CITY           SKY/WX    TMP DP  RH WIND       PRES   REMARKS
IRON MOUNTAIN  CLEAR     58  57  97 S3        30.03S
HOUGHTON       PTCLDY    57  55  93 CALM      29.97F
IRONWOOD       PTCLDY    63  61  94 SW8       29.97F
$$

ABBREVIATIONS USED IN REMARKS
   TC - TEMPERATURE IN CELSIUS
  WCI - WIND CHILL INDEX
   HX - HEAT INDEX
  VSB - VISIBILITY



USA.gov is the U.S. government's official web portal to all federal, state and local government web resources and services.